FW3005 Weather Reports


time (UTC)temp
F
wind
direction
speed
knots
gust
knots
rain 1hr
in
rain 24hr
in
rain mn
in
humidity
%
barometer
mb
20260906103047 71 85 0.9 3.5 0.00 0.00 0.00 87 1016.5
20260906101546 71 133 0.0 3.5 0.00 0.00 0.00 87 1016.2
20260906100043 72 90 0.9 3.5 0.00 0.00 0.00 86 1016.1
20260906094542 72 90 0.0 0.9 0.00 0.00 0.00 87 1016.3
20260906093049 72 87 0.0 2.6 0.00 0.00 0.00 87 1016.1
20260906091540 72 104 0.0 1.7 0.00 0.00 0.00 87 1016.0
20260906090039 72 88 0.9 1.7 0.00 0.00 0.00 87 1016.0
20260906084539 72 97 0.0 2.6 0.00 0.00 0.00 86 1015.9
20260906083037 72 102 0.0 1.7 0.00 0.00 0.00 87 1016.0
20260906081549 72 95 0.0 0.9 0.00 0.00 0.00 87 1016.1
20260906080036 72 92 0.0 0.9 0.00 0.00 0.00 88 1016.2
20260906074535 73 94 0.0 0.9 0.00 0.00 0.00 87 1016.2
20260906073047 73 96 0.0 1.7 0.00 0.00 0.00 87 1016.1
20260906071532 73 46 0.0 2.6 0.00 0.00 0.00 87 1016.0
20260906070038 73 95 0.0 4.3 0.00 0.00 0.00 87 1016.0
20260906064530 73 22 0.0 2.6 0.00 0.00 0.00 88 1016.2
20260906063030 73 82 0.0 2.6 0.00 0.00 0.00 88 1016.2
20260906061529 73 12 0.9 4.3 0.00 0.00 0.00 88 1016.2
20260906060027 73 36 0.0 2.6 0.00 0.00 0.00 88 1016.1
20260906054525 73 70 0.9 4.3 0.00 0.00 0.00 88 1015.8
20260906053033 73 87 0.9 7.8 0.00 0.00 0.00 88 1015.7
20260906051523 73 86 1.7 5.2 0.00 0.00 0.00 87 1015.5
20260906050021 73 20 0.9 8.7 0.00 0.00 0.00 87 1015.5
20260906044519 73 97 3.5 8.7 0.00 0.00 0.00 87 1015.2
20260906043024 73 102 2.6 6.1 0.00 0.00 0.00 88 1015.1
20260906041518 73 75 1.7 10.4 0.00 0.00 0.00 88 1015.2
20260906040017 73 85 0.9 6.1 0.00 0.00 0.00 88 1015.0
20260906034523 73 50 3.5 12.2 0.00 0.00 0.00 88 1015.0
20260906033015 74 74 2.6 12.2 0.00 0.00 0.00 87 1014.8
20260906031514 73 92 1.7 11.3 0.00 0.00 0.00 87 1014.8
20260906030013 74 49 1.7 9.6 0.00 0.00 0.00 87 1014.7
20260906024512 74 36 3.5 11.3 0.00 0.00 0.00 87 1015.0
20260906023012 74 46 4.3 10.4 0.00 0.00 0.00 87 1015.0
20260906021613 74 25 1.7 9.6 0.00 0.00 0.00 87 1015.1
20260906020010 74 7 5.2 12.2 0.00 0.00 0.00 86 1015.0
20260906014509 74 359 1.7 7.8 0.00 0.00 0.00 86 1015.0
20260906013007 74 47 4.3 8.7 0.00 0.00 0.00 86 1014.7
20260906011505 73 336 1.7 11.3 0.00 0.00 0.00 85 1014.7
20260906010004 73 21 4.3 8.7 0.00 0.00 0.00 86 1014.4
20260906004503 73 49 5.2 10.4 0.00 0.00 0.00 85 1014.2
20260906003002 73 76 7.0 11.3 0.00 0.00 0.00 85 1014.2
20260906001559 73 27 6.1 13.0 0.00 0.00 0.00 85 1014.3
20260906000107 74 13 3.5 9.6 0.00 0.00 0.00 84 1014.2
20260905234557 74 19 5.2 12.2 0.00 0.00 0.00 84 1014.2
20260905233054 75 64 2.6 11.3 0.00 0.00 0.00 85 1014.0
20260905231548 75 2 3.5 15.6 0.00 0.00 0.00 84 1014.0
20260905230048 76 357 5.2 13.0 0.00 0.00 0.00 82 1013.7
20260905224552 77 297 5.2 12.2 0.00 0.00 0.00 81 1013.7
20260905223042 76 345 3.5 11.3 0.00 0.00 0.00 82 1013.7
20260905221543 77 6 4.3 11.3 0.00 0.00 0.00 82 1013.7
20260905220040 76 26 1.7 8.7 0.00 0.00 0.00 83 1013.8
20260905214539 76 324 4.3 13.0 0.00 0.00 0.00 83 1013.7
20260905213037 77 309 4.3 13.9 0.00 0.00 0.00 83 1013.6
20260905211536 77 356 5.2 11.3 0.00 0.00 0.00 82 1013.5
20260905210034 78 32 6.1 10.4 0.00 0.00 0.00 81 1013.6
20260905204533 78 359 6.1 11.3 0.00 0.00 0.00 80 1013.5
20260905203031 79 13 3.5 13.0 0.00 0.00 0.00 80 1013.6
20260905201534 79 340 6.1 12.2 0.00 0.00 0.00 78 1013.6
20260905200044 79 334 4.3 13.0 0.00 0.00 0.00 79 1013.5
20260905194528 79 31 6.1 11.3 0.00 0.00 0.00 79 1013.6
20260905193029 81 333 3.5 12.2 0.00 0.00 0.00 77 1013.7
20260905191534 80 27 5.2 12.2 0.00 0.00 0.00 78 1013.9
20260905190042 81 304 5.2 11.3 0.00 0.00 0.00 77 1013.7
20260905184524 81 32 5.2 11.3 0.00 0.00 0.00 77 1013.8
20260905183023 81 314 3.5 11.3 0.00 0.00 0.00 78 1013.6
20260905181526 82 355 4.3 11.3 0.00 0.00 0.00 78 1013.5
20260905180022 82 352 4.3 11.3 0.00 0.00 0.00 76 1013.6
20260905174520 82 354 6.1 10.4 0.00 0.00 0.00 76 1013.6
20260905173021 83 46 3.5 10.4 0.00 0.00 0.00 75 1013.5
20260905171519 83 24 5.2 11.3 0.00 0.00 0.00 74 1013.5
20260905170019 83 4 4.3 8.7 0.00 0.00 0.00 74 1013.6
20260905164524 83 40 3.5 8.7 0.00 0.00 0.00 76 1013.6
20260905163016 83 349 0.9 9.6 0.00 0.00 0.00 76 1013.6
20260905161515 83 18 2.6 8.7 0.00 0.00 0.00 77 1013.6
20260905160012 82 324 4.3 7.0 0.00 0.00 0.00 79 1013.5
20260905154508 81 84 3.5 9.6 0.00 0.00 0.00 82 1013.3
20260905153007 81 1 4.3 7.8 0.00 0.00 0.00 83 1013.3
20260905151507 80 111 3.5 12.2 0.00 0.00 0.00 83 1013.3
20260905150005 80 9 4.3 9.6 0.00 0.00 0.00 83 1013.3
20260905144502 80 354 2.6 8.7 0.00 0.00 0.00 83 1013.2
20260905143058 80 19 3.5 10.4 0.00 0.00 0.00 83 1012.8
20260905141656 79 320 3.5 7.8 0.00 0.00 0.00 84 1012.8
20260905140105 79 20 3.5 7.8 0.00 0.00 0.00 85 1012.9
20260905134555 80 345 0.0 5.2 0.00 0.00 0.00 86 1013.0
20260905133053 79 4 2.6 7.0 0.00 0.00 0.00 85 1012.8
20260905131604 78 13 0.9 5.2 0.00 0.00 0.00 87 1012.6
20260905130052 78 310 0.9 5.2 0.00 0.00 0.00 88 1012.5
20260905124548 78 8 1.7 4.3 0.00 0.00 0.00 88 1012.3
20260905123046 77 21 1.7 5.2 0.00 0.00 0.00 89 1012.3
20260905121550 77 352 0.0 2.6 0.00 0.00 0.00 89 1012.0
20260905120044 77 26 0.9 2.6 0.00 0.00 0.00 88 1011.7
20260905114542 76 351 0.0 1.7 0.00 0.00 0.00 90 1011.4
20260905113041 76 13 0.0 0.0 0.00 0.00 0.00 90 1011.5
20260905111601 76 13 0.0 0.0 0.00 0.00 0.00 90 1011.2
20260905110039 76 13 0.0 0.9 0.00 0.00 0.00 90 1011.1
20260905104537 77 13 0.0 0.9 0.00 0.00 0.00 89 1011.1